Wind_Speed
13 14 14 14 14 14 15 15 16 16 16 16 16 16 16 17 17 17 17 17 16 16 16 16 16 16 15 15 15 14 14 13 13 13 13 13 14 14 14 14 14 14 14 16 17 18 20 21 22 22 21 21 20 19 20 20 19 19 17 16 16 15 12 10 9 9 6 4 4 7 11 8 7 13 15 15 18 20 18 17 17 15 14 13 13 14 11 9
13 13 13 14 14 14 14 15 15 15 16 16 15 16 16 16 16 17 17 17 16 16 16 16 16 16 15 15 14 14 14 13 13 13 13 13 13 13 13 14 14 13 14 16 16 17 19 20 22 22 22 21 20 20 20 20 21 19 16 17 17 13 12 11 9 9 8 6 5 7 11 11 11 14 15 14 16 17 14 15 16 15 15 13 12 12 10 9
12 13 13 13 14 14 14 15 15 15 15 15 16 16 15 15 16 16 17 17 16 16 16 16 16 16 15 15 14 14 13 13 13 13 13 13 13 13 13 13 13 13 14 15 16 17 18 19 21 22 22 20 20 21 19 20 22 20 18 18 16 13 13 13 12 12 13 10 7 9 12 13 15 16 15 13 14 15 14 15 15 13 13 10 10 9 7 7
12 13 13 13 14 14 15 15 15 15 15 16 16 16 16 15 15 15 16 16 16 16 16 16 16 16 15 14 13 13 12 11 14 14 13 13 12 12 13 12 12 12 13 14 15 17 17 20 21 22 22 19 21 22 21 22 20 19 23 17 12 16 15 12 13 14 16 13 9 12 11 12 17 18 17 16 15 14 14 15 13 10 10 9 8 6 5 5
13 13 13 14 14 15 15 15 15 15 15 16 16 16 16 16 15 15 15 15 15 15 15 15 15 15 15 14 12 12 8 7 12 14 13 13 12 12 12 11 12 11 12 13 14 16 17 19 21 24 24 19 21 23 21 22 21 20 24 19 15 20 15 9 13 15 17 16 12 12 9 10 18 18 19 19 13 12 14 13 12 10 10 9 7 5 5 6
13 13 14 14 14 15 15 15 15 16 16 16 16 16 16 16 15 15 15 14 15 15 15 14 14 14 14 12 11 11 7 6 12 13 11 13 12 12 12 11 11 10 11 12 13 16 16 19 21 24 24 19 21 22 19 22 24 21 19 22 24 23 16 11 13 16 17 18 14 13 11 13 17 14 19 20 11 12 15 12 11 10 9 8 7 6 6 6
13 14 14 14 14 15 15 15 16 16 16 16 16 16 16 16 16 15 15 14 14 14 14 14 13 13 12 12 11 10 10 11 14 12 11 12 11 11 11 10 10 9 10 12 13 15 16 19 20 22 22 19 20 19 19 23 24 21 15 20 24 23 20 16 15 17 18 19 17 16 14 14 13 10 15 18 14 15 15 12 11 10 8 7 6 6 7 8
13 14 14 14 14 15 15 15 16 16 16 16 16 16 16 16 16 15 15 15 14 14 14 13 13 12 11 11 11 10 11 14 15 14 13 12 12 11 10 10 10 8 9 10 12 14 15 17 18 20 19 17 19 18 20 22 21 24 19 16 21 22 21 18 18 19 19 19 19 18 16 14 14 12 13 15 15 16 15 13 12 10 8 6 5 6 7 8
13 14 14 14 14 14 15 15 15 15 15 16 16 16 16 15 16 16 15 15 15 14 14 13 12 12 11 11 10 9 12 14 14 14 13 13 12 11 11 11 11 10 9 9 12 14 14 16 17 19 17 15 19 19 21 20 16 23 22 16 20 20 18 18 20 19 19 19 19 18 15 14 16 15 14 15 15 14 14 13 12 10 8 6 7 8 9 9
14 14 14 14 14 14 14 14 15 15 15 15 15 16 15 15 15 16 15 15 15 14 14 14 13 12 11 11 10 9 12 14 13 14 13 13 12 11 11 12 12 11 11 11 12 13 14 15 16 19 18 17 19 19 20 19 15 18 20 19 20 18 17 19 20 18 20 20 19 17 12 14 19 16 13 15 16 13 13 13 11 10 9 9 10 11 11 10
14 14 14 13 13 13 14 14 14 14 14 14 15 15 15 15 15 15 15 15 15 14 14 14 13 12 11 11 11 12 14 13 13 14 13 12 11 11 11 12 12 12 12 12 12 13 14 16 17 17 16 16 18 17 19 21 18 18 18 19 21 19 19 21 20 18 19 18 18 17 13 16 19 17 14 15 16 14 13 13 11 10 9 10 12 13 12 11
14 14 13 13 13 13 13 14 14 14 14 14 14 15 15 15 15 15 15 15 14 14 14 14 13 13 12 12 12 13 14 12 12 13 13 12 11 11 10 11 12 12 13 13 12 13 15 16 17 15 13 14 15 14 17 21 21 20 18 14 15 17 18 20 18 17 18 16 17 17 14 18 20 18 17 16 16 15 14 12 10 9 10 11 13 14 12 13
14 14 13 13 13 13 13 14 14 14 14 14 14 15 15 15 15 15 15 14 14 13 13 13 13 13 12 12 13 13 12 12 12 13 13 13 12 11 11 11 12 13 14 15 14 14 15 16 16 17 17 13 12 13 14 18 19 18 17 12 10 13 16 18 17 18 18 17 18 16 15 18 20 20 20 18 17 15 14 12 10 9 11 13 14 14 13 15
14 14 14 14 13 14 14 14 15 15 15 15 15 15 15 15 15 14 14 14 14 13 13 12 12 13 12 12 13 12 12 13 13 13 14 14 13 12 12 11 11 12 13 15 16 17 17 17 16 17 17 14 15 15 10 12 17 14 13 13 13 13 13 16 16 18 18 18 17 14 15 17 16 21 23 19 17 16 14 13 11 11 13 16 16 16 15 17
14 14 14 14 14 14 14 14 15 15 15 15 15 15 15 15 14 14 13 12 13 12 12 12 11 12 12 12 13 12 12 13 14 15 15 15 14 13 12 11 11 12 13 14 16 18 18 17 14 13 13 14 16 14 9 10 13 13 13 14 16 14 11 12 14 17 17 17 17 15 15 15 13 17 21 20 18 16 15 14 13 13 16 19 18 17 17 18
15 15 14 14 14 14 14 14 15 15 15 15 15 15 15 15 14 13 12 12 11 11 11 10 10 12 11 12 13 12 12 14 16 16 15 15 14 13 12 11 12 13 13 15 17 19 19 17 14 13 13 13 13 13 11 12 12 14 16 14 14 16 13 10 12 16 16 15 17 18 17 13 10 13 16 18 19 17 17 17 15 15 19 21 20 19 18 18
15 15 15 15 14 14 14 15 15 15 15 15 16 15 15 14 13 13 12 11 10 10 10 9 9 10 11 11 11 12 13 15 16 15 15 15 14 12 11 12 13 14 15 17 18 18 18 17 14 13 13 12 12 14 13 13 14 14 16 14 11 14 14 11 10 14 18 17 16 18 19 14 9 11 14 17 18 18 17 18 18 18 21 23 21 20 18 17
16 16 16 16 15 14 14 14 15 15 14 15 16 16 15 14 13 13 13 12 10 9 9 9 8 6 9 11 12 12 14 16 16 15 14 14 13 12 12 12 14 16 18 18 17 17 16 16 14 10 12 13 13 16 15 13 13 13 15 15 12 12 14 12 9 11 15 16 16 17 19 18 13 12 14 16 18 18 19 20 20 20 22 23 22 20 18 16
17 16 16 16 16 15 14 14 15 15 14 15 15 15 14 14 13 13 13 12 11 9 9 10 8 6 8 12 15 15 15 17 17 15 14 13 12 13 13 14 15 18 20 17 15 16 14 13 14 12 13 15 15 16 13 8 8 10 12 13 12 12 14 13 8 9 13 13 15 16 16 18 16 15 17 17 17 20 21 22 21 20 23 24 21 20 18 16
18 17 17 17 16 16 14 14 14 14 15 15 15 15 14 14 13 13 13 11 11 12 11 12 11 10 12 13 15 17 16 17 18 16 15 13 12 13 14 16 18 19 18 14 14 17 15 12 14 14 13 14 14 15 12 8 7 8 9 11 12 10 12 13 9 8 12 12 14 15 15 16 16 15 18 17 18 22 24 24 22 22 24 24 21 20 18 16
18 18 18 17 17 16 15 14 14 14 14 15 15 14 13 13 12 13 15 11 9 12 14 15 13 12 15 16 17 17 17 17 18 17 15 14 13 13 15 18 22 20 17 14 14 17 15 13 14 12 11 12 14 16 15 12 10 9 9 10 11 12 10 10 9 10 11 12 12 14 16 16 15 17 18 17 17 22 26 25 23 23 25 24 22 20 19 17
18 18 18 18 18 17 15 14 14 14 14 15 14 13 13 12 11 12 15 11 7 9 13 16 14 11 13 18 19 18 19 18 18 18 17 15 15 14 14 18 21 18 18 17 14 15 15 14 13 11 13 15 15 16 16 12 11 11 11 10 11 13 11 8 9 10 9 10 10 12 15 16 19 21 20 18 16 18 23 24 21 23 26 25 22 20 19 18
19 19 18 18 18 18 17 15 14 14 14 14 14 13 12 11 11 12 14 14 8 6 11 14 13 9 10 17 20 20 20 19 16 18 18 17 16 16 15 18 19 15 17 18 15 14 13 12 12 13 15 15 13 14 15 12 12 13 12 13 11 12 12 9 10 12 8 8 10 12 14 16 22 25 23 23 19 16 18 20 21 24 25 24 22 21 19 17
20 19 19 19 18 19 18 15 15 14 14 14 14 13 12 10 10 11 15 16 11 6 8 12 12 8 9 17 21 21 20 19 16 18 18 17 18 19 17 17 17 15 15 17 16 13 10 8 10 14 13 12 11 13 15 13 13 15 14 14 11 11 11 7 7 11 8 7 10 12 13 15 21 23 23 25 21 17 17 20 23 25 26 24 23 22 19 17
20 19 19 19 18 19 18 16 15 14 14 14 14 13 11 10 10 11 15 16 13 8 7 8 9 9 11 16 20 20 20 19 18 17 17 16 18 19 18 18 17 15 15 16 16 14 12 10 8 11 12 11 10 12 14 15 14 15 16 17 13 9 10 6 3 7 10 9 10 14 12 11 17 20 22 23 19 18 18 20 24 25 27 26 24 23 20 17
19 19 18 18 18 19 19 17 16 14 14 14 14 12 11 10 9 10 13 13 11 7 4 4 5 8 11 14 18 20 19 19 19 18 17 17 18 17 17 18 17 13 13 14 14 14 13 13 9 10 13 11 11 11 13 16 14 12 15 17 15 11 9 8 6 7 11 8 9 17 12 8 15 17 19 21 17 17 18 20 24 26 28 27 24 23 19 17
19 19 18 17 17 18 18 18 17 14 14 14 13 12 11 9 7 8 10 9 8 6 4 4 5 7 10 14 18 19 14 15 19 18 17 17 17 17 15 16 16 14 14 13 12 13 14 15 14 14 13 10 11 12 13 17 14 10 12 14 13 13 11 9 9 10 9 4 7 17 12 7 15 16 18 19 16 16 18 21 26 28 28 26 23 22 19 17
18 18 18 17 17 17 17 18 17 16 15 14 12 12 10 8 6 4 5 5 4 3 3 5 6 7 9 13 18 20 11 10 15 17 18 18 17 17 14 12 14 14 15 15 10 9 13 16 15 15 13 10 10 10 11 17 15 8 10 12 10 11 11 10 11 11 8 6 10 16 12 8 12 16 18 19 16 15 16 20 27 28 27 24 23 22 20 18
17 17 16 16 16 16 17 17 17 17 15 14 13 12 10 8 5 3 4 5 2 3 3 3 5 5 7 11 19 22 12 9 13 15 19 21 19 18 15 13 13 11 14 17 10 4 11 17 15 13 12 8 8 9 12 17 16 10 9 10 9 8 8 9 11 11 8 9 12 13 12 10 8 15 18 17 15 14 14 18 25 27 25 22 22 22 21 20
17 16 15 15 15 16 16 16 17 17 16 14 13 13 11 9 7 6 5 4 2 3 5 5 3 3 6 11 20 22 13 12 15 15 18 22 19 18 17 14 13 11 12 16 13 7 10 16 15 14 13 9 7 10 14 17 17 13 10 10 9 8 8 8 10 10 8 10 11 11 11 9 7 14 16 14 13 14 14 18 22 25 24 22 22 22 22 22
17 16 15 14 13 14 15 16 16 17 17 16 14 14 12 10 10 8 6 6 5 3 4 5 5 5 6 10 18 22 16 12 13 15 20 22 20 18 17 14 13 13 12 14 15 12 11 13 14 15 14 10 7 8 12 16 18 15 12 13 12 9 9 10 10 10 9 8 8 10 11 10 8 11 14 13 15 16 17 21 23 24 24 23 23 23 23 23
17 17 15 13 13 12 14 16 16 17 17 17 15 15 14 12 12 12 8 6 6 5 6 7 6 6 6 9 14 19 18 13 10 15 21 21 20 20 18 15 15 15 13 14 14 13 15 14 13 15 15 11 8 7 9 14 18 16 14 14 13 10 9 9 9 9 10 5 7 9 11 12 10 8 13 16 16 16 18 21 23 24 24 25 25 25 25 25
17 16 15 14 12 12 13 14 15 15 16 17 16 16 16 13 12 16 16 9 4 6 8 9 7 6 6 8 11 17 20 16 12 14 18 20 19 20 19 16 16 15 11 13 14 13 15 15 15 16 15 14 13 11 10 14 18 18 17 16 13 8 6 7 8 8 9 4 6 8 9 12 11 9 15 19 16 16 16 17 18 19 20 22 24 26 27 27
18 16 15 14 12 12 12 12 14 14 16 17 18 19 19 16 12 14 18 15 8 6 9 9 8 6 6 7 9 15 19 18 15 14 15 19 19 19 20 17 18 16 10 10 13 14 14 13 17 19 15 15 17 15 12 13 18 19 16 16 14 10 8 7 6 7 9 6 7 8 7 10 11 9 15 19 16 16 16 15 15 15 15 16 18 24 27 28
17 16 15 14 12 12 11 11 13 14 16 18 20 21 21 20 15 13 15 15 13 10 9 10 8 7 8 8 7 13 18 17 18 17 15 17 19 19 19 19 20 18 14 11 11 12 13 11 13 20 17 14 16 16 13 13 17 18 15 14 14 12 9 5 4 4 5 4 7 10 7 6 7 8 16 19 17 18 17 16 17 15 15 15 15 19 24 28
17 16 15 13 12 12 11 11 12 15 17 20 23 23 24 21 16 13 12 12 13 13 12 11 10 9 11 11 9 11 15 14 16 19 17 17 18 18 18 17 18 19 17 15 11 10 13 11 11 18 20 17 16 15 17 16 14 15 18 17 14 11 8 6 5 3 4 5 6 10 9 7 6 8 17 21 20 20 19 18 18 17 17 17 16 17 19 24
17 15 14 12 11 11 11 10 12 16 18 22 24 23 22 21 17 13 12 12 12 13 12 12 12 12 11 11 11 11 13 13 14 19 18 17 17 17 18 16 17 19 18 17 15 11 13 12 12 15 17 21 21 16 17 21 15 13 17 17 14 11 10 10 7 4 6 7 5 9 12 12 10 9 14 20 20 19 19 18 18 18 17 18 18 19 19 21
16 14 13 11 11 11 10 10 12 16 19 23 26 23 20 20 20 18 16 13 10 10 11 11 11 10 9 11 11 11 13 13 14 17 17 17 15 14 17 17 16 19 18 18 16 14 14 12 11 13 13 18 22 19 17 21 21 16 13 13 14 12 11 12 10 5 7 7 5 8 11 13 13 10 11 17 20 18 18 17 16 16 16 17 16 17 18 18
15 14 13 11 10 11 10 9 12 17 21 24 25 23 22 22 22 23 22 17 12 9 9 9 9 9 9 9 8 9 12 13 13 16 15 15 13 10 13 16 17 18 19 19 16 14 15 14 9 11 13 13 16 19 18 17 21 21 15 12 15 13 11 12 11 9 8 7 6 7 9 11 12 10 11 15 19 18 16 15 15 15 15 14 12 10 9 10
15 14 13 12 10 10 9 9 13 17 22 25 23 20 20 20 20 24 26 20 14 11 10 7 7 8 7 7 7 7 10 11 12 14 13 12 11 8 10 14 16 19 20 19 19 16 16 17 12 8 10 12 14 18 20 16 17 21 20 17 16 14 12 11 11 12 11 7 5 7 7 8 11 14 15 16 17 15 12 13 14 14 12 10 9 7 6 6
15 13 12 12 10 8 8 9 13 17 20 22 22 19 18 18 16 17 22 23 18 14 12 10 8 8 7 6 7 6 7 10 12 13 12 13 12 9 9 11 12 16 18 17 20 19 15 16 15 9 10 13 14 15 19 18 16 18 20 21 19 18 16 12 10 13 15 11 8 7 6 6 13 19 19 16 14 13 13 16 16 13 11 10 9 7 6 6
13 11 10 11 8 6 6 7 13 18 18 17 20 20 20 21 16 10 13 19 18 16 17 16 14 13 11 9 8 7 7 9 11 13 13 14 14 12 12 12 10 12 14 16 19 19 16 16 16 14 12 12 12 14 17 19 19 19 19 19 18 19 20 16 11 11 14 13 11 11 7 4 13 20 20 17 14 14 17 18 15 13 13 12 12 10 9 8
12 11 10 10 7 4 3 5 10 14 15 16 19 19 19 20 16 10 9 12 13 13 16 17 15 15 14 13 12 10 9 9 9 11 12 11 14 17 18 19 15 11 11 13 16 19 17 14 14 15 13 11 12 15 15 17 19 18 18 20 19 19 20 20 15 10 12 13 12 11 7 6 13 19 20 19 16 16 18 18 15 13 15 14 13 13 12 12
13 12 11 9 6 4 2 5 7 9 13 16 15 13 14 15 13 12 11 10 11 11 11 12 13 14 15 15 14 12 11 10 8 10 10 9 12 16 19 21 20 16 14 12 12 17 16 11 12 14 12 12 13 11 11 15 17 16 17 21 23 21 21 22 18 13 13 14 15 12 5 6 13 19 21 21 19 18 18 17 14 13 15 15 13 14 14 14
13 11 11 9 6 4 4 7 8 7 10 13 11 10 11 12 14 15 12 11 14 14 11 11 13 14 15 15 14 13 13 12 9 9 10 9 11 14 14 17 21 20 19 16 13 15 14 11 13 12 7 8 9 7 9 13 13 15 18 21 22 22 22 21 18 16 15 13 15 16 7 8 15 19 22 22 20 20 19 18 16 14 16 16 14 15 16 16
11 9 10 10 6 4 5 6 8 8 8 9 10 12 12 11 11 14 13 12 13 14 14 13 13 13 13 13 13 13 14 14 11 9 8 9 12 14 13 16 20 22 22 20 16 15 11 9 11 9 4 2 3 2 7 12 10 9 13 18 20 21 22 20 17 17 16 13 14 16 10 11 17 20 22 23 22 21 20 20 18 17 18 18 16 17 19 19
10 9 10 10 7 6 6 5 7 9 10 10 10 13 13 12 10 10 12 13 12 13 13 13 13 13 14 14 13 13 14 15 14 13 11 11 13 16 15 17 19 21 22 22 19 16 14 13 15 14 9 3 3 1 5 10 10 10 11 14 17 18 20 20 16 13 13 12 12 11 11 14 20 23 24 25 25 23 21 21 21 20 21 20 17 18 20 20
10 10 10 10 10 10 9 5 4 4 8 12 13 12 12 12 12 11 12 13 12 13 12 12 14 13 13 14 13 13 14 13 14 16 14 13 14 13 14 17 17 18 19 19 17 15 14 15 17 19 16 12 7 4 5 7 8 10 11 11 12 13 15 17 16 13 11 10 8 10 15 17 20 24 25 25 25 24 22 22 22 22 23 21 19 19 21 22
9 9 10 11 13 15 13 6 3 2 4 11 13 12 11 13 14 12 12 12 12 13 12 11 13 13 12 13 13 14 14 12 13 16 16 17 16 13 12 13 14 15 16 15 14 13 12 13 16 17 14 11 10 8 8 9 8 8 9 10 10 10 9 10 10 9 9 6 5 11 16 18 20 24 24 22 22 22 22 23 23 23 24 23 21 21 22 22
9 10 11 13 14 15 14 8 5 5 5 10 14 13 12 13 14 12 12 12 11 12 12 9 10 12 12 13 14 14 15 14 14 16 17 19 19 18 16 15 16 17 16 13 13 13 11 12 17 18 13 12 12 10 9 10 9 8 8 7 7 9 9 9 7 6 6 4 5 9 13 16 20 22 22 21 20 21 23 24 25 25 24 23 22 22 22 22
10 10 9 12 13 14 14 11 10 11 12 13 15 16 15 14 14 13 13 14 13 13 12 11 11 10 9 11 13 12 13 14 14 16 18 19 20 21 20 19 19 19 18 16 16 16 15 15 19 19 15 13 15 14 12 11 9 8 6 3 3 6 7 6 6 6 6 5 6 6 8 15 19 19 20 20 19 21 24 25 27 27 25 24 23 23 24 24
11 10 9 11 12 13 13 12 11 13 15 16 16 16 16 15 14 14 15 15 15 14 13 12 12 11 9 9 11 10 11 11 12 14 16 17 18 19 18 17 18 19 19 20 18 16 18 19 20 19 15 13 16 19 18 12 6 10 16 16 10 6 4 2 1 2 2 4 5 5 5 11 15 17 18 18 18 21 23 26 27 27 28 29 28 27 27 27
Wind_Direction
292 294 295 297 298 299 298 298 296 295 295 293 291 289 287 285 283 280 278 275 273 271 269 266 265 265 265 265 267 268 266 264 262 260 259 258 256 253 248 245 243 239 233 231 230 229 228 224 223 221 220 220 218 218 218 213 209 206 206 218 226 225 224 214 205 204 185 141 134 179 176 157 146 148 145 154 162 162 160 159 160 159 158 156 151 151 149 158
291 293 296 297 299 300 301 301 300 299 298 298 297 294 290 286 283 281 279 276 273 271 268 266 265 265 265 266 268 269 268 266 263 260 259 258 257 255 251 246 242 236 231 229 227 227 228 226 224 223 221 220 218 216 217 215 210 205 208 223 227 225 222 213 206 202 190 174 154 162 171 158 146 145 137 141 154 154 153 155 155 152 150 146 144 147 147 156
292 294 296 298 300 301 302 303 303 303 302 302 301 300 297 291 286 282 280 277 274 271 268 267 265 265 266 265 268 269 268 268 265 263 260 258 258 257 253 247 241 234 230 227 225 225 224 223 223 223 222 219 219 216 214 216 213 207 211 222 229 228 226 223 218 204 190 178 162 161 162 157 150 147 141 143 152 149 151 154 147 143 144 140 139 145 142 151
295 296 297 299 300 301 302 303 304 304 304 304 303 303 301 297 292 285 280 277 274 271 269 267 266 266 266 265 267 266 269 273 268 263 260 260 258 256 253 249 243 235 231 227 226 226 223 222 219 219 219 216 221 219 214 217 213 213 217 218 233 234 227 230 223 206 193 182 174 168 156 157 157 150 148 150 153 154 157 155 147 146 145 136 134 144 147 155
297 298 299 299 300 301 301 302 303 304 304 305 304 303 301 300 298 292 284 277 274 272 269 267 266 266 265 265 264 261 266 274 265 260 259 258 256 255 254 251 247 238 230 224 223 225 224 223 218 218 215 210 221 219 215 218 211 216 222 216 227 229 219 224 222 206 197 189 180 175 166 169 163 153 153 153 158 165 164 160 156 154 145 144 146 150 164 168
299 299 300 301 301 300 300 301 302 302 303 303 303 302 300 300 299 297 292 282 276 273 270 268 265 264 263 262 258 253 244 237 255 257 254 254 253 252 250 250 246 238 229 219 219 222 222 223 218 219 215 207 219 217 211 219 216 217 227 226 228 229 217 214 218 208 201 196 190 189 187 177 166 160 160 158 172 178 166 161 159 160 161 165 164 164 172 180
301 302 302 302 302 302 301 301 301 301 301 301 301 300 300 300 300 300 297 291 282 276 273 270 266 263 260 257 252 248 238 235 248 252 250 250 249 247 245 246 242 234 229 216 216 218 220 224 218 218 213 207 218 215 212 223 223 216 227 240 236 232 225 216 214 210 209 207 203 199 192 184 174 174 171 166 174 175 169 168 167 172 176 179 180 184 184 186
303 303 304 304 304 303 302 301 301 301 300 299 299 299 301 301 301 301 300 296 289 282 276 271 268 263 256 253 249 248 244 242 247 249 249 248 246 243 240 241 238 235 232 219 217 214 217 222 216 214 209 211 218 211 216 223 225 220 220 240 239 233 230 220 214 212 214 218 215 205 198 197 193 185 180 174 174 174 173 174 176 182 183 193 203 202 199 198
303 303 303 303 303 303 303 302 302 301 300 299 298 299 301 302 301 300 300 299 294 287 280 274 269 263 257 253 247 248 250 246 247 247 246 246 245 243 240 240 239 240 238 228 222 215 215 216 213 213 205 212 220 212 218 218 223 228 221 232 239 236 236 224 217 216 217 222 220 213 209 211 205 193 189 188 184 181 181 181 185 193 197 206 205 202 203 202
301 301 301 301 301 302 302 302 303 302 302 301 300 300 299 299 297 297 299 299 297 291 284 277 269 263 257 250 242 244 249 244 245 247 246 246 245 243 240 240 240 240 239 234 226 217 214 210 211 213 204 212 219 212 216 212 217 231 222 229 236 233 236 227 219 219 218 222 221 216 222 222 209 200 207 207 197 192 193 195 199 205 208 205 200 201 202 198
300 300 300 299 299 299 299 301 302 304 305 305 304 302 300 297 295 295 297 298 298 294 287 279 270 262 255 249 241 240 245 244 244 247 246 245 240 238 237 237 236 232 233 232 227 217 210 209 209 206 205 215 216 211 216 212 214 226 223 230 236 233 236 230 224 222 218 222 224 218 227 230 213 204 215 217 204 200 203 202 205 211 212 207 197 198 202 197
297 298 297 295 295 294 296 298 301 304 306 307 306 305 304 300 296 294 294 296 297 297 293 284 274 264 254 248 243 240 243 245 245 245 242 240 235 233 234 233 231 226 225 224 219 215 208 209 203 190 201 214 206 206 220 216 214 225 226 230 239 237 239 234 228 225 218 220 224 221 226 229 220 212 213 212 204 203 206 205 206 211 213 209 197 195 200 196
295 296 294 293 291 290 292 295 299 302 304 305 305 304 305 303 301 297 295 295 296 298 296 289 278 266 255 248 245 242 241 241 240 238 234 234 232 231 234 230 226 223 221 216 210 205 203 204 196 187 195 197 191 200 215 217 215 224 228 226 230 235 238 231 225 223 218 217 219 219 227 227 219 217 218 212 208 210 210 209 212 216 214 208 199 196 195 194
294 294 292 291 289 288 289 292 297 300 302 304 303 303 303 304 305 304 299 294 294 296 295 291 279 265 253 246 245 238 236 236 231 227 227 231 231 232 234 228 224 221 220 218 208 197 195 196 194 196 195 184 190 199 198 209 213 215 223 226 225 233 229 215 218 219 214 218 216 211 228 230 213 216 225 220 213 215 215 216 217 217 212 206 200 195 192 195
294 293 291 290 288 286 287 289 294 298 301 302 301 301 301 303 307 310 306 298 294 293 292 288 275 261 247 243 244 235 232 229 221 222 228 230 231 233 233 228 223 216 213 216 206 193 188 186 183 190 196 192 193 192 185 197 207 205 214 222 220 225 214 197 216 214 207 220 217 207 227 233 209 213 227 223 217 218 217 216 214 212 208 204 199 193 193 198
295 294 292 290 287 286 285 287 291 296 300 301 300 300 299 302 307 312 311 301 295 293 291 289 272 254 241 240 239 232 227 221 218 223 228 230 231 232 230 225 217 208 204 203 199 192 184 177 178 185 189 190 189 188 191 195 201 206 214 220 212 215 214 201 217 211 202 214 215 211 223 229 212 215 223 219 219 219 216 217 212 208 206 201 196 193 196 200
295 294 293 291 287 285 284 286 288 293 297 299 300 299 299 303 306 310 311 307 303 297 293 290 274 249 234 231 229 230 223 214 218 222 225 228 226 225 226 220 207 198 193 192 190 187 184 179 181 187 186 187 191 193 197 199 200 202 210 220 212 212 218 207 204 209 207 210 214 217 223 226 225 227 222 213 215 211 208 215 210 205 204 198 194 194 196 201
294 294 293 292 289 286 284 285 286 290 294 297 299 299 301 305 306 308 309 310 308 300 298 292 278 251 233 226 220 226 218 211 218 220 223 226 220 217 214 207 200 189 183 184 184 181 184 186 184 189 192 193 196 195 203 208 203 200 201 213 215 211 219 212 199 204 208 211 216 219 223 227 230 234 227 214 213 208 205 212 208 203 204 196 191 194 196 201
292 292 292 292 290 288 285 284 285 288 291 295 297 301 306 307 307 308 305 307 306 298 292 281 260 213 218 225 220 221 212 209 217 220 225 225 216 212 205 197 190 183 180 180 183 181 179 186 190 197 199 197 197 199 210 215 206 207 202 208 215 208 211 211 201 194 196 205 217 219 221 226 228 232 234 224 215 211 208 211 207 202 202 195 190 194 195 199
291 290 289 289 289 289 286 283 282 285 288 291 294 301 309 310 313 311 302 300 296 286 274 267 255 218 213 220 217 216 210 207 213 219 225 224 213 206 201 191 178 176 180 182 190 189 182 190 200 204 203 199 199 204 212 211 199 202 202 210 213 209 207 202 203 204 199 208 221 222 223 228 225 224 233 227 213 212 211 211 210 204 201 195 192 195 194 197
291 290 289 287 286 286 286 283 279 281 284 287 292 299 307 311 314 308 300 297 282 274 269 265 263 236 217 217 213 208 205 205 210 217 222 219 209 197 196 186 175 178 185 183 193 192 188 202 207 204 202 198 201 207 210 208 204 203 207 211 209 211 206 190 201 215 209 218 227 223 223 227 220 218 227 222 209 211 212 213 213 208 203 197 195 196 194 197
291 290 288 287 285 283 283 282 278 277 279 282 287 294 303 310 312 305 303 301 273 259 264 264 266 253 222 217 214 206 202 200 206 217 218 214 202 189 193 186 177 187 192 187 190 192 201 217 212 207 206 202 205 208 209 212 211 209 210 212 211 208 203 192 207 215 211 219 228 224 220 219 216 220 223 215 207 209 208 211 214 209 205 198 195 195 195 199
289 288 286 286 285 282 281 279 277 274 274 278 282 290 300 309 313 310 308 306 291 256 260 265 269 264 224 215 214 209 204 199 203 216 216 213 200 186 194 191 182 193 199 195 194 194 208 219 211 212 211 205 212 216 216 219 216 213 211 212 211 200 202 205 200 207 215 216 224 222 213 214 216 218 217 211 206 202 200 202 205 205 202 196 192 193 195 200
288 286 284 283 282 282 280 277 275 271 270 274 277 285 295 305 313 314 313 311 306 289 270 264 262 253 217 212 213 209 206 202 202 215 216 209 201 192 194 192 188 198 201 199 204 205 214 219 210 214 212 205 218 224 219 218 215 213 212 214 212 197 207 216 183 199 221 226 223 212 204 211 213 210 210 209 206 202 200 198 200 201 198 192 189 194 197 199
288 285 282 280 279 279 278 277 274 269 267 269 272 279 287 300 311 315 319 319 312 304 289 265 251 235 216 212 210 205 206 207 205 215 216 206 202 197 193 192 194 204 207 204 210 218 227 233 218 206 205 202 215 223 216 212 212 212 212 215 218 206 211 223 186 200 217 223 215 201 200 200 197 201 205 205 203 203 204 201 200 198 194 189 189 195 199 198
289 286 283 279 276 275 275 274 271 268 265 262 266 272 279 291 303 316 319 312 297 285 279 269 243 223 212 207 206 200 203 212 212 218 217 204 200 196 194 199 197 202 208 205 214 225 228 228 214 190 196 204 214 220 212 206 209 213 209 208 213 215 218 217 208 213 216 223 203 196 206 194 180 193 201 199 200 202 206 205 198 193 191 189 190 196 199 197
290 287 284 280 276 271 270 270 268 265 260 256 259 263 270 279 289 320 322 296 268 243 242 251 220 207 206 203 199 190 197 216 214 216 213 201 198 193 193 203 202 201 202 198 213 228 221 211 199 188 196 209 216 217 207 200 205 209 198 200 208 212 219 213 207 222 224 237 202 196 215 214 179 185 196 194 192 193 199 200 193 189 189 189 191 197 199 196
294 290 286 282 277 271 266 265 263 260 255 252 252 253 259 263 268 317 322 280 237 198 240 234 201 199 204 201 190 182 190 210 204 211 207 195 196 192 191 205 207 207 206 198 202 218 210 198 189 189 199 209 208 209 202 197 202 203 189 197 203 201 211 209 209 224 222 220 210 196 212 225 179 177 191 187 183 184 184 184 186 188 188 189 194 199 200 198
299 295 290 285 280 274 266 261 257 255 253 248 242 242 245 244 244 264 273 268 235 184 218 202 187 202 201 194 186 182 185 182 189 208 203 194 197 193 194 207 205 204 210 208 207 197 193 194 193 196 204 209 201 203 203 199 205 211 191 186 186 187 199 205 214 222 215 220 217 193 205 227 179 172 185 181 181 186 176 175 183 187 190 194 198 201 202 202
302 299 296 290 283 276 268 262 254 250 248 242 233 231 229 221 224 230 228 230 201 196 221 205 183 196 188 185 185 184 182 181 192 205 198 197 202 200 202 206 200 204 212 216 225 224 195 196 201 202 204 208 199 196 200 201 207 210 197 184 183 189 194 204 218 217 214 223 213 190 202 231 200 173 180 181 182 186 184 185 187 189 194 199 203 205 205 206
305 302 301 295 287 279 269 260 252 245 241 235 226 222 216 208 217 226 222 220 217 206 206 197 187 186 178 183 189 187 185 187 196 198 192 194 200 202 206 204 199 206 212 219 227 226 213 205 206 208 209 210 204 198 199 203 206 204 197 192 190 192 198 207 210 210 226 223 185 184 203 227 221 174 174 190 188 185 191 195 193 194 198 203 207 208 207 208
307 306 303 298 291 283 270 260 254 247 238 230 222 212 202 201 216 221 221 232 230 205 182 179 173 174 179 190 198 195 191 188 187 189 191 191 194 198 202 199 194 196 205 213 214 214 219 217 214 219 220 213 208 204 195 196 198 197 198 200 201 198 197 209 207 206 229 216 152 182 203 218 222 168 171 194 188 181 189 193 195 198 204 209 211 211 210 211
310 309 305 299 292 285 274 261 255 248 236 226 215 202 198 208 221 219 217 221 214 184 185 186 176 174 186 196 202 198 197 197 187 185 191 192 195 200 203 204 199 200 209 206 200 204 211 212 216 225 226 219 211 205 195 190 192 196 199 202 209 211 199 210 215 211 220 195 148 183 203 215 215 176 183 197 189 185 188 190 196 201 207 213 215 214 214 213
312 310 306 300 291 284 277 261 249 241 232 221 205 195 202 216 223 219 218 222 221 196 188 191 190 197 205 203 203 196 196 203 197 187 190 195 200 203 204 206 204 207 217 207 203 208 208 210 211 214 220 218 213 212 208 199 198 201 205 210 219 230 226 219 227 228 223 200 162 178 204 218 212 187 192 198 192 192 193 193 199 203 208 213 215 217 216 215
317 313 307 301 291 281 276 261 242 232 228 216 199 197 206 213 219 224 224 225 227 223 217 212 207 222 224 211 209 200 196 202 203 199 199 200 204 205 206 211 209 210 216 212 208 211 218 225 205 202 211 214 212 214 213 208 206 204 206 216 225 232 233 236 284 294 254 218 181 188 208 222 212 197 198 201 199 198 199 200 204 206 209 210 211 215 217 218
323 318 310 302 290 277 273 261 237 225 223 210 201 206 212 213 219 227 226 223 224 225 232 234 224 229 229 212 205 201 196 198 202 204 207 206 209 210 209 213 212 211 215 214 210 208 220 227 208 207 215 215 215 214 209 209 206 201 207 216 222 226 226 235 261 279 261 250 196 192 211 211 201 200 200 203 203 202 204 207 210 214 216 217 217 218 219 221
326 323 315 305 291 277 271 260 233 220 217 209 207 214 216 217 222 223 222 224 225 224 230 234 225 223 229 218 206 197 195 198 199 204 208 207 211 216 214 216 219 217 216 218 224 227 229 228 215 213 217 217 220 218 213 213 203 196 211 216 217 220 223 232 240 212 218 238 198 191 214 209 198 198 198 203 205 206 210 213 217 223 226 229 230 231 231 228
326 326 321 310 294 279 268 254 230 216 211 209 213 219 219 222 228 228 228 227 223 222 227 231 227 224 229 223 208 194 194 197 193 199 206 204 208 218 217 220 227 224 218 221 229 234 237 235 213 204 213 218 218 216 215 214 208 206 214 214 213 218 214 215 227 223 215 231 212 195 210 213 211 199 190 203 208 208 213 217 222 228 231 235 235 236 238 236
329 329 325 316 299 282 269 248 226 212 208 209 215 222 224 226 230 231 229 224 218 221 228 232 229 223 222 221 211 196 201 206 198 198 205 203 206 213 212 215 222 222 219 220 225 226 228 233 215 201 215 219 211 213 215 210 209 213 216 213 216 226 226 212 218 229 228 233 223 203 208 217 214 191 178 197 204 205 209 213 218 221 220 220 216 214 219 219
334 332 325 318 301 282 268 243 223 211 208 212 216 222 228 229 232 234 230 224 222 226 229 230 222 219 220 221 219 205 210 219 211 206 205 196 194 200 207 211 214 218 219 220 224 223 221 229 226 204 212 217 207 211 215 211 206 210 214 215 214 219 227 226 226 231 238 247 230 217 224 207 190 191 194 197 199 200 194 189 192 195 191 188 183 176 167 165
339 334 323 318 306 281 259 233 220 214 211 216 220 222 229 229 230 237 235 229 227 226 228 228 222 227 234 227 224 219 221 227 221 218 213 199 198 205 211 210 206 209 213 215 221 221 215 221 226 211 209 218 212 212 217 215 209 209 215 219 219 218 220 224 225 221 230 247 243 237 243 181 177 195 201 199 200 194 174 168 171 168 160 154 153 153 154 161
342 337 326 322 316 288 250 219 222 220 213 218 224 223 228 232 229 233 234 232 231 232 235 237 236 241 248 246 242 241 240 236 227 224 221 213 211 214 221 222 205 195 202 206 213 219 216 217 224 225 223 222 221 225 227 223 219 219 223 223 225 226 223 229 236 214 214 233 240 242 249 189 187 199 199 197 197 184 169 165 164 154 143 139 140 141 145 157
347 343 338 334 326 308 262 225 233 227 216 222 228 227 230 232 230 228 227 227 228 230 236 239 239 242 246 248 248 245 244 242 233 227 224 218 215 217 225 229 216 196 197 203 208 213 215 218 223 226 225 228 237 242 242 238 231 226 226 224 225 228 225 231 242 228 214 222 226 232 235 190 194 200 198 197 190 178 172 168 165 157 148 143 142 141 140 144
355 352 347 343 333 319 275 233 233 225 222 228 230 229 229 225 222 221 222 222 222 225 231 233 236 238 240 243 243 239 238 237 236 230 220 211 217 222 225 227 221 210 201 200 202 205 207 216 225 225 219 217 226 233 233 232 227 221 223 225 227 229 227 229 235 237 236 230 225 235 234 171 191 197 195 197 190 184 183 177 172 167 159 154 151 150 150 150
2 358 349 345 338 314 267 242 239 236 234 232 226 219 217 216 219 216 213 220 224 225 228 230 233 235 236 238 238 236 235 230 231 232 217 208 222 226 222 221 221 216 209 204 196 192 193 201 216 228 234 221 221 224 214 211 210 212 221 225 225 224 223 223 224 229 234 225 220 234 228 159 184 196 193 194 194 193 194 190 183 176 171 168 165 167 170 167
8 5 356 350 343 320 295 258 247 245 236 225 221 219 210 208 220 219 215 222 225 224 227 229 230 230 229 230 232 237 235 227 228 228 208 200 216 222 219 217 217 218 218 216 206 197 198 209 221 235 271 321 353 310 201 188 180 191 211 218 218 219 219 218 223 232 233 220 217 228 218 172 180 193 194 195 197 198 200 199 196 190 185 183 182 183 184 181
7 13 12 9 4 345 330 290 254 243 228 213 213 219 211 204 210 212 212 217 217 216 222 225 225 225 224 222 225 233 233 228 228 225 211 206 216 219 216 215 217 219 221 224 223 221 229 241 240 239 249 282 8 57 169 174 174 174 186 203 209 213 215 214 222 235 232 228 224 208 191 184 183 189 196 198 200 201 200 200 201 198 194 191 191 192 191 189
12 19 20 20 22 12 356 322 287 265 226 206 201 207 204 200 204 204 203 207 211 212 216 221 222 221 220 217 218 224 226 225 225 222 213 207 205 202 201 207 215 220 221 224 227 226 230 237 233 230 234 242 240 204 150 147 156 161 167 179 188 198 206 209 220 228 219 229 229 184 185 198 195 194 198 199 200 202 201 201 199 195 193 192 193 196 195 194
18 25 24 26 31 27 17 3 358 355 214 191 182 184 190 196 201 201 196 195 199 204 208 215 219 219 218 213 211 216 216 210 212 212 206 198 188 175 176 190 199 203 205 210 214 216 219 223 219 212 208 209 213 203 175 152 131 123 131 137 145 160 173 182 200 210 200 206 203 185 195 202 199 197 198 196 197 196 194 193 191 189 192 194 196 198 198 199
24 28 28 32 37 36 32 37 65 83 141 160 155 155 165 183 190 187 186 183 178 184 192 195 199 204 210 207 207 213 213 209 208 204 197 193 188 182 180 180 185 191 195 202 211 213 213 215 213 203 185 174 181 186 182 175 160 136 119 111 121 131 132 136 139 138 143 143 156 181 193 192 192 195 194 192 193 189 185 185 185 187 190 193 196 199 200 202
33 31 33 41 43 42 43 53 78 97 109 119 126 132 140 158 169 162 156 159 156 156 164 165 159 162 181 196 200 204 205 206 206 197 191 190 190 192 193 194 197 200 203 212 217 216 221 224 212 203 202 200 196 190 184 187 193 192 190 182 147 128 115 114 112 105 101 99 114 148 181 184 186 191 191 190 189 184 183 184 186 189 189 189 193 195 197 199
40 36 40 48 48 46 48 53 67 81 87 92 104 119 128 135 143 138 130 137 143 142 145 149 143 135 142 162 169 172 177 182 186 188 190 191 191 194 198 201 204 205 207 214 215 209 217 224 214 207 215 216 211 211 206 204 228 234 224 221 213 200 187 166 138 102 90 101 115 136 186 192 192 195 196 195 191 187 187 188 191 194 196 195 194 192 191 192
Height
3111 3110 3110 3109 3109 3109 3108 3108 3107 3106 3106 3105 3105 3104 3104 3104 3104 3103 3103 3103 3103 3103 3103 3103 3103 3103 3103 3104 3104 3104 3104 3104 3104 3104 3104 3105 3105 3105 3106 3106 3107 3107 3108 3109 3110 3111 3112 3114 3115 3117 3118 3119 3121 3122 3123 3124 3126 3127 3128 3130 3129 3129 3130 3130 3131 3130 3130 3130 3130 3130 3130 3130 3130 3130 3129 3130 3132 3133 3134 3135 3136 3137 3138 3139 3140 3141 3142 3142
3109 3109 3108 3108 3108 3107 3107 3106 3105 3105 3104 3104 3103 3103 3102 3102 3102 3102 3102 3102 3102 3102 3101 3101 3101 3102 3102 3102 3102 3102 3102 3102 3102 3102 3103 3103 3103 3103 3104 3104 3105 3106 3107 3107 3108 3109 3111 3112 3114 3115 3117 3118 3119 3120 3121 3123 3124 3126 3128 3128 3128 3128 3128 3128 3129 3129 3129 3130 3129 3130 3130 3130 3130 3130 3130 3131 3133 3133 3134 3135 3136 3137 3138 3139 3139 3140 3141 3141
3108 3108 3107 3107 3106 3106 3105 3105 3104 3104 3103 3102 3102 3101 3101 3101 3100 3100 3100 3100 3100 3100 3100 3100 3100 3100 3100 3101 3101 3101 3101 3101 3101 3101 3101 3101 3102 3102 3102 3103 3103 3104 3105 3106 3107 3108 3109 3111 3112 3114 3116 3117 3118 3119 3120 3121 3122 3124 3125 3126 3127 3127 3126 3126 3127 3127 3128 3128 3129 3129 3130 3130 3130 3130 3130 3132 3133 3133 3134 3136 3136 3137 3138 3139 3139 3140 3140 3140
3107 3106 3106 3105 3105 3104 3104 3103 3103 3102 3102 3101 3100 3100 3099 3099 3099 3098 3098 3098 3098 3098 3098 3098 3098 3099 3099 3099 3099 3099 3100 3100 3099 3099 3099 3099 3100 3100 3100 3101 3102 3103 3103 3104 3105 3107 3108 3109 3111 3112 3114 3116 3116 3117 3119 3119 3121 3123 3122 3124 3126 3124 3125 3126 3125 3126 3127 3128 3128 3129 3129 3130 3129 3129 3130 3131 3133 3133 3135 3136 3136 3137 3138 3138 3139 3139 3139 3140
3105 3105 3104 3104 3103 3103 3103 3102 3102 3101 3100 3100 3099 3099 3098 3098 3097 3097 3097 3096 3096 3097 3097 3097 3097 3097 3097 3098 3098 3098 3099 3099 3097 3097 3098 3098 3098 3099 3099 3099 3100 3101 3102 3103 3104 3105 3106 3108 3109 3110 3112 3115 3114 3115 3117 3118 3119 3120 3120 3122 3122 3121 3124 3125 3124 3125 3126 3127 3128 3128 3129 3129 3129 3129 3129 3130 3133 3134 3134 3135 3136 3136 3137 3137 3138 3138 3139 3139
3104 3104 3103 3103 3102 3102 3101 3101 3100 3100 3099 3098 3098 3097 3097 3096 3096 3095 3095 3095 3095 3095 3095 3095 3095 3096 3096 3096 3096 3097 3098 3098 3096 3096 3097 3096 3097 3097 3097 3098 3098 3099 3100 3101 3102 3103 3105 3106 3107 3108 3110 3113 3113 3114 3116 3116 3117 3119 3119 3119 3119 3120 3123 3124 3123 3124 3125 3126 3127 3127 3128 3128 3129 3129 3129 3130 3132 3133 3133 3134 3135 3135 3136 3136 3137 3137 3138 3138
3103 3102 3102 3101 3101 3100 3100 3099 3099 3098 3098 3097 3096 3096 3095 3095 3094 3094 3094 3093 3093 3093 3093 3093 3094 3094 3094 3095 3095 3095 3096 3096 3094 3095 3095 3095 3096 3096 3096 3097 3097 3098 3098 3100 3101 3102 3103 3104 3106 3107 3109 3112 3112 3114 3115 3114 3115 3118 3119 3117 3117 3119 3120 3122 3123 3123 3124 3124 3125 3126 3127 3128 3128 3129 3129 3129 3130 3132 3132 3133 3134 3134 3135 3136 3136 3136 3137 3137
3101 3101 3100 3100 3099 3099 3098 3098 3097 3096 3096 3095 3095 3094 3094 3094 3093 3093 3092 3092 3091 3091 3091 3092 3092 3092 3093 3093 3094 3094 3094 3094 3093 3094 3094 3094 3095 3095 3096 3096 3096 3097 3097 3098 3099 3100 3102 3103 3105 3106 3109 3111 3111 3113 3113 3113 3115 3115 3117 3116 3116 3117 3118 3120 3121 3122 3123 3123 3124 3125 3126 3127 3127 3128 3129 3129 3130 3131 3131 3132 3133 3134 3134 3135 3135 3136 3136 3136
3100 3099 3099 3098 3098 3097 3097 3096 3095 3095 3094 3094 3093 3093 3093 3092 3092 3091 3091 3091 3090 3090 3090 3090 3090 3091 3091 3092 3092 3093 3092 3092 3092 3092 3093 3093 3093 3094 3095 3095 3095 3096 3096 3097 3098 3099 3100 3102 3104 3105 3108 3109 3109 3111 3111 3113 3115 3113 3115 3115 3114 3116 3117 3119 3120 3121 3122 3122 3123 3124 3126 3126 3126 3127 3128 3129 3129 3130 3131 3131 3132 3133 3134 3134 3135 3135 3135 3136
3098 3098 3097 3097 3096 3096 3095 3095 3094 3094 3093 3093 3092 3091 3091 3091 3090 3090 3089 3089 3089 3088 3088 3088 3089 3089 3090 3090 3091 3092 3090 3090 3091 3091 3091 3092 3092 3093 3093 3093 3094 3095 3095 3096 3096 3098 3099 3101 3102 3103 3106 3107 3107 3109 3109 3112 3113 3111 3113 3114 3113 3115 3116 3117 3118 3119 3120 3121 3122 3124 3126 3126 3125 3127 3128 3128 3128 3129 3130 3131 3131 3132 3133 3133 3134 3134 3134 3135
3097 3096 3096 3095 3095 3094 3094 3093 3093 3092 3092 3091 3091 3090 3089 3089 3089 3088 3088 3088 3087 3087 3087 3087 3087 3088 3088 3088 3089 3089 3089 3089 3089 3089 3090 3090 3091 3091 3092 3092 3092 3093 3094 3094 3095 3096 3097 3099 3100 3102 3105 3105 3106 3108 3108 3109 3110 3110 3111 3112 3112 3114 3114 3115 3116 3117 3119 3120 3121 3122 3124 3124 3124 3126 3127 3127 3127 3128 3129 3130 3131 3131 3132 3132 3133 3133 3133 3134
3096 3095 3094 3094 3093 3093 3092 3092 3091 3091 3090 3090 3089 3089 3088 3087 3087 3087 3086 3086 3086 3086 3086 3086 3086 3086 3086 3087 3087 3087 3087 3088 3088 3088 3088 3089 3089 3090 3090 3091 3091 3092 3092 3093 3094 3095 3096 3097 3098 3102 3103 3103 3106 3107 3106 3107 3108 3109 3110 3112 3113 3113 3113 3114 3115 3116 3118 3119 3120 3121 3122 3122 3123 3124 3125 3125 3126 3127 3128 3129 3130 3130 3131 3131 3132 3132 3133 3132
3094 3094 3093 3092 3092 3091 3091 3090 3090 3090 3089 3089 3088 3087 3087 3086 3085 3085 3085 3085 3084 3084 3084 3084 3084 3084 3085 3085 3085 3086 3086 3087 3087 3087 3087 3087 3088 3089 3089 3089 3090 3090 3091 3091 3092 3093 3094 3095 3097 3099 3100 3103 3106 3105 3104 3105 3107 3109 3109 3112 3113 3112 3112 3112 3114 3115 3116 3118 3118 3120 3121 3120 3121 3122 3123 3124 3125 3126 3127 3128 3129 3129 3130 3130 3131 3131 3131 3131
3093 3092 3092 3091 3090 3090 3089 3089 3089 3088 3088 3087 3086 3086 3085 3084 3084 3083 3083 3083 3083 3082 3082 3082 3083 3083 3083 3083 3083 3084 3085 3085 3085 3085 3085 3086 3086 3087 3087 3088 3088 3089 3089 3090 3091 3092 3093 3094 3096 3098 3099 3102 3103 3103 3104 3105 3107 3109 3110 3110 3111 3111 3111 3111 3112 3113 3115 3116 3116 3119 3119 3118 3119 3119 3120 3122 3124 3125 3126 3127 3127 3128 3128 3129 3130 3130 3130 3129
3092 3091 3090 3090 3089 3088 3088 3087 3087 3087 3086 3085 3085 3084 3084 3083 3082 3082 3081 3081 3081 3081 3081 3080 3081 3081 3081 3082 3082 3082 3083 3083 3083 3083 3084 3085 3085 3086 3086 3087 3087 3088 3089 3090 3091 3091 3092 3094 3096 3098 3100 3100 3101 3103 3105 3106 3106 3108 3109 3108 3109 3110 3109 3109 3109 3111 3114 3114 3115 3118 3118 3118 3117 3116 3118 3121 3122 3124 3125 3125 3126 3127 3127 3128 3129 3129 3128 3127
3090 3090 3089 3088 3088 3087 3087 3086 3086 3085 3085 3084 3083 3083 3082 3082 3081 3080 3080 3079 3079 3079 3079 3079 3078 3079 3080 3080 3080 3081 3081 3081 3081 3082 3083 3083 3084 3085 3085 3086 3086 3087 3088 3089 3090 3091 3092 3094 3096 3097 3099 3100 3101 3103 3105 3105 3106 3106 3106 3106 3106 3107 3108 3108 3108 3109 3112 3112 3113 3115 3116 3117 3116 3114 3117 3119 3120 3122 3123 3124 3124 3125 3126 3127 3128 3128 3127 3126
3089 3088 3087 3087 3086 3086 3085 3085 3084 3084 3083 3082 3081 3081 3081 3080 3080 3079 3078 3078 3077 3077 3077 3077 3077 3077 3078 3078 3079 3079 3079 3079 3080 3081 3081 3082 3083 3084 3084 3085 3086 3087 3088 3089 3090 3091 3093 3094 3096 3097 3098 3100 3102 3103 3103 3103 3103 3103 3104 3104 3104 3105 3106 3106 3106 3107 3109 3110 3112 3113 3114 3115 3115 3113 3116 3117 3119 3120 3122 3122 3123 3124 3125 3126 3126 3126 3126 3125
3087 3087 3086 3085 3085 3084 3084 3083 3082 3082 3081 3081 3080 3079 3079 3079 3078 3078 3077 3076 3076 3076 3075 3075 3075 3076 3077 3077 3077 3078 3078 3079 3079 3080 3080 3081 3082 3082 3083 3084 3085 3086 3088 3090 3091 3092 3093 3094 3096 3098 3099 3099 3100 3101 3101 3100 3100 3101 3102 3103 3103 3104 3105 3105 3105 3105 3107 3109 3111 3112 3112 3114 3114 3113 3114 3116 3117 3119 3120 3121 3121 3122 3123 3124 3125 3126 3125 3125
3085 3085 3084 3083 3083 3082 3082 3082 3081 3080 3080 3079 3078 3078 3078 3077 3077 3076 3075 3075 3074 3074 3075 3074 3074 3075 3075 3075 3076 3076 3076 3077 3078 3079 3079 3080 3081 3082 3083 3084 3085 3087 3088 3090 3091 3092 3093 3095 3096 3097 3097 3097 3098 3100 3100 3099 3099 3100 3101 3101 3102 3102 3103 3104 3104 3104 3106 3108 3109 3110 3111 3112 3113 3112 3113 3114 3116 3117 3118 3119 3120 3121 3122 3123 3124 3124 3124 3124
3083 3083 3082 3082 3081 3081 3080 3080 3079 3079 3078 3077 3077 3077 3077 3076 3075 3075 3073 3073 3073 3072 3072 3072 3072 3073 3073 3073 3074 3074 3075 3076 3077 3078 3078 3079 3080 3081 3082 3083 3085 3087 3089 3091 3092 3091 3093 3095 3095 3095 3096 3096 3097 3098 3098 3098 3099 3099 3100 3101 3101 3101 3101 3103 3104 3103 3105 3106 3107 3108 3109 3110 3111 3111 3111 3112 3113 3114 3115 3117 3118 3119 3120 3122 3123 3123 3123 3123
3081 3081 3080 3080 3079 3079 3079 3078 3078 3077 3077 3076 3076 3075 3075 3075 3075 3074 3072 3071 3071 3070 3070 3069 3069 3070 3071 3071 3072 3073 3074 3075 3076 3077 3078 3078 3079 3081 3082 3083 3085 3087 3089 3091 3091 3091 3092 3093 3094 3094 3095 3095 3096 3096 3096 3097 3098 3099 3100 3100 3100 3100 3101 3101 3102 3102 3104 3105 3106 3106 3108 3108 3109 3109 3109 3110 3111 3111 3113 3114 3116 3118 3119 3120 3121 3122 3122 3123
3079 3079 3078 3077 3077 3076 3076 3076 3076 3076 3075 3075 3074 3074 3074 3074 3073 3072 3070 3069 3069 3069 3068 3067 3067 3068 3069 3070 3070 3072 3073 3074 3075 3075 3076 3077 3079 3081 3082 3083 3085 3087 3088 3089 3090 3091 3092 3092 3093 3093 3093 3093 3094 3095 3096 3097 3098 3099 3099 3099 3099 3099 3100 3100 3101 3102 3102 3103 3104 3104 3106 3106 3106 3106 3107 3108 3109 3110 3111 3113 3114 3116 3117 3118 3120 3120 3121 3122
3077 3076 3076 3075 3074 3074 3074 3074 3074 3074 3073 3073 3073 3073 3073 3072 3071 3070 3069 3068 3067 3067 3066 3065 3065 3066 3067 3068 3068 3070 3071 3073 3074 3075 3075 3077 3078 3080 3082 3083 3086 3087 3087 3087 3089 3090 3091 3090 3091 3091 3091 3092 3093 3094 3095 3096 3097 3098 3098 3098 3097 3097 3098 3098 3099 3101 3101 3102 3102 3102 3103 3104 3103 3104 3106 3106 3107 3108 3109 3111 3112 3114 3115 3117 3118 3119 3120 3121
3074 3074 3073 3073 3072 3072 3072 3072 3072 3072 3072 3071 3071 3071 3071 3071 3070 3069 3068 3066 3065 3065 3064 3064 3064 3064 3065 3065 3066 3069 3070 3072 3073 3074 3074 3076 3077 3079 3081 3083 3085 3086 3086 3087 3088 3089 3089 3089 3089 3090 3090 3092 3093 3093 3094 3095 3096 3096 3097 3097 3096 3097 3097 3097 3098 3099 3100 3100 3100 3100 3101 3101 3101 3102 3103 3104 3106 3107 3108 3109 3110 3112 3114 3116 3117 3118 3119 3120
3071 3071 3070 3070 3070 3069 3069 3070 3070 3070 3070 3070 3070 3070 3070 3070 3069 3068 3067 3065 3064 3063 3063 3062 3062 3063 3063 3064 3065 3068 3070 3071 3072 3073 3073 3075 3077 3078 3080 3082 3084 3085 3086 3087 3087 3088 3088 3087 3088 3089 3089 3091 3092 3092 3093 3094 3094 3095 3095 3095 3095 3096 3097 3097 3098 3098 3099 3098 3097 3098 3098 3097 3099 3101 3102 3103 3104 3106 3107 3108 3109 3111 3113 3115 3116 3117 3118 3119
3068 3068 3067 3067 3067 3067 3067 3067 3067 3068 3068 3068 3068 3068 3069 3069 3069 3068 3067 3066 3064 3063 3062 3061 3061 3061 3061 3062 3064 3067 3069 3070 3071 3071 3072 3074 3076 3078 3080 3081 3082 3084 3085 3086 3087 3087 3086 3086 3087 3088 3089 3090 3091 3091 3091 3092 3093 3093 3093 3094 3095 3096 3097 3097 3098 3097 3096 3094 3094 3096 3094 3094 3098 3101 3101 3102 3103 3104 3105 3106 3108 3110 3112 3114 3115 3116 3118 3119
3065 3065 3064 3064 3064 3064 3064 3064 3065 3066 3066 3066 3066 3067 3068 3068 3068 3068 3067 3066 3063 3061 3061 3060 3060 3060 3060 3061 3063 3066 3069 3069 3069 3070 3071 3074 3075 3077 3079 3080 3081 3082 3083 3084 3085 3084 3084 3085 3086 3087 3088 3089 3090 3090 3090 3091 3092 3091 3091 3093 3095 3095 3096 3096 3097 3096 3094 3093 3094 3095 3094 3093 3095 3098 3099 3101 3102 3103 3104 3105 3107 3109 3111 3113 3114 3116 3117 3118
3062 3062 3061 3061 3061 3062 3062 3062 3062 3063 3064 3064 3065 3066 3066 3067 3067 3068 3068 3066 3060 3059 3060 3059 3059 3059 3059 3060 3062 3065 3067 3067 3069 3069 3070 3073 3075 3076 3078 3080 3080 3081 3081 3083 3083 3082 3082 3084 3085 3086 3087 3088 3088 3089 3089 3090 3091 3090 3091 3093 3094 3095 3095 3095 3096 3094 3094 3094 3093 3093 3094 3092 3092 3096 3098 3099 3101 3101 3102 3104 3106 3108 3110 3112 3113 3115 3116 3117
3059 3059 3059 3059 3058 3059 3059 3059 3060 3060 3061 3062 3063 3064 3065 3066 3067 3067 3069 3066 3059 3058 3059 3058 3058 3058 3059 3060 3061 3064 3065 3066 3068 3068 3069 3071 3073 3075 3077 3078 3080 3081 3081 3081 3081 3081 3082 3083 3084 3085 3087 3087 3087 3087 3088 3089 3090 3090 3091 3092 3093 3094 3094 3094 3094 3093 3094 3094 3091 3092 3094 3091 3091 3095 3098 3098 3100 3100 3101 3103 3105 3107 3109 3111 3112 3113 3115 3116
3057 3056 3056 3056 3056 3056 3056 3056 3057 3058 3059 3060 3061 3063 3064 3065 3066 3067 3068 3064 3058 3058 3058 3058 3058 3058 3058 3060 3061 3063 3065 3066 3066 3066 3068 3070 3072 3074 3075 3077 3079 3080 3080 3080 3080 3081 3081 3082 3083 3084 3085 3085 3085 3085 3086 3087 3088 3089 3091 3092 3093 3093 3093 3094 3093 3093 3093 3091 3089 3091 3093 3093 3091 3094 3097 3098 3098 3100 3101 3102 3105 3106 3108 3109 3111 3112 3113 3114
3054 3054 3054 3054 3054 3053 3053 3053 3054 3055 3056 3058 3059 3061 3062 3064 3065 3065 3063 3059 3057 3057 3057 3057 3058 3058 3058 3060 3061 3062 3064 3065 3065 3066 3068 3069 3071 3073 3074 3076 3077 3078 3080 3079 3079 3080 3081 3081 3082 3082 3082 3083 3084 3085 3085 3086 3087 3089 3090 3091 3091 3091 3092 3092 3092 3094 3091 3088 3088 3091 3093 3094 3092 3092 3096 3097 3097 3098 3100 3102 3103 3105 3107 3108 3110 3111 3112 3113
3052 3052 3051 3051 3051 3051 3051 3051 3051 3053 3054 3055 3057 3059 3061 3063 3062 3060 3058 3057 3057 3057 3056 3057 3057 3058 3059 3060 3061 3062 3063 3064 3064 3065 3067 3068 3070 3071 3073 3074 3075 3076 3077 3077 3078 3079 3080 3080 3081 3081 3081 3082 3084 3084 3085 3085 3086 3088 3089 3089 3088 3087 3089 3089 3089 3090 3088 3086 3089 3091 3092 3093 3091 3092 3095 3096 3096 3098 3099 3101 3102 3104 3106 3107 3108 3110 3111 3112
3050 3049 3049 3049 3049 3049 3048 3048 3049 3050 3052 3054 3055 3057 3059 3059 3056 3055 3056 3056 3056 3055 3055 3056 3056 3057 3058 3058 3059 3060 3062 3063 3064 3065 3066 3068 3069 3070 3071 3072 3073 3074 3074 3075 3076 3077 3078 3079 3080 3080 3080 3080 3082 3083 3083 3084 3085 3086 3086 3086 3084 3083 3086 3088 3085 3084 3085 3086 3089 3091 3091 3091 3091 3093 3094 3095 3096 3097 3098 3100 3101 3103 3104 3106 3107 3109 3110 3111
3048 3047 3047 3046 3046 3046 3046 3046 3047 3048 3050 3051 3053 3055 3056 3055 3052 3052 3054 3054 3054 3054 3054 3055 3055 3056 3056 3057 3058 3058 3060 3062 3063 3064 3065 3066 3068 3069 3070 3071 3072 3073 3073 3074 3074 3074 3074 3075 3077 3078 3078 3079 3080 3081 3082 3083 3084 3084 3084 3084 3083 3081 3083 3085 3082 3081 3082 3085 3088 3091 3090 3089 3089 3091 3093 3094 3096 3096 3097 3099 3100 3102 3103 3104 3106 3107 3109 3110
3045 3045 3044 3044 3044 3043 3043 3044 3044 3045 3047 3049 3051 3052 3051 3050 3050 3051 3051 3052 3053 3053 3054 3054 3054 3055 3055 3056 3056 3056 3058 3059 3061 3063 3064 3064 3065 3066 3067 3069 3069 3071 3072 3072 3072 3073 3073 3072 3073 3075 3076 3077 3079 3079 3081 3082 3082 3083 3084 3084 3083 3082 3082 3083 3082 3082 3083 3084 3086 3089 3088 3088 3089 3091 3092 3094 3095 3096 3097 3098 3099 3101 3102 3103 3104 3105 3107 3108
3043 3042 3042 3041 3041 3041 3041 3041 3042 3043 3044 3046 3048 3047 3046 3047 3049 3049 3049 3050 3051 3052 3053 3053 3053 3054 3054 3054 3055 3055 3056 3057 3059 3061 3062 3062 3063 3064 3065 3067 3068 3069 3070 3071 3071 3072 3072 3071 3072 3073 3074 3076 3077 3078 3079 3080 3080 3081 3082 3081 3081 3082 3083 3083 3083 3084 3086 3085 3084 3086 3087 3088 3090 3091 3091 3093 3094 3095 3096 3097 3098 3099 3100 3101 3102 3103 3105 3106
3041 3040 3039 3039 3038 3038 3038 3039 3039 3040 3041 3043 3044 3043 3044 3045 3046 3046 3047 3048 3049 3050 3052 3052 3051 3052 3051 3052 3053 3054 3055 3056 3057 3058 3059 3060 3061 3062 3064 3065 3066 3067 3069 3070 3070 3070 3071 3070 3070 3072 3073 3073 3075 3076 3077 3077 3078 3080 3080 3080 3081 3082 3083 3083 3083 3083 3085 3083 3082 3084 3086 3087 3088 3089 3090 3092 3093 3094 3095 3096 3097 3098 3098 3099 3100 3101 3102 3103
3040 3038 3037 3036 3036 3035 3036 3036 3037 3037 3039 3040 3040 3041 3042 3043 3044 3044 3045 3046 3048 3049 3050 3050 3050 3050 3050 3050 3051 3053 3053 3054 3054 3056 3057 3058 3059 3059 3061 3063 3064 3065 3067 3069 3069 3070 3070 3069 3068 3070 3071 3071 3073 3075 3075 3075 3076 3078 3078 3078 3080 3081 3081 3082 3082 3082 3082 3081 3081 3083 3084 3084 3086 3088 3089 3091 3092 3092 3094 3095 3096 3096 3097 3098 3099 3099 3100 3101
3038 3036 3035 3035 3034 3033 3033 3034 3034 3035 3037 3037 3038 3039 3039 3040 3041 3041 3042 3045 3047 3048 3049 3049 3048 3049 3049 3050 3051 3051 3052 3052 3052 3053 3054 3055 3056 3057 3059 3060 3061 3062 3064 3066 3068 3068 3069 3069 3067 3068 3069 3070 3071 3072 3072 3073 3074 3075 3077 3077 3078 3079 3078 3079 3080 3079 3079 3078 3079 3082 3082 3082 3084 3086 3088 3089 3090 3091 3093 3093 3094 3095 3096 3097 3097 3098 3099 3100
3036 3035 3033 3033 3032 3031 3031 3031 3032 3033 3033 3034 3036 3037 3037 3038 3039 3039 3040 3043 3045 3046 3047 3047 3048 3048 3049 3049 3050 3050 3051 3051 3051 3051 3052 3053 3055 3056 3056 3057 3058 3060 3062 3064 3065 3066 3068 3068 3066 3067 3068 3068 3069 3069 3070 3071 3072 3073 3074 3075 3076 3077 3077 3078 3078 3078 3078 3076 3077 3079 3080 3080 3082 3085 3086 3087 3088 3090 3091 3092 3093 3094 3095 3096 3096 3097 3098 3099
3035 3033 3032 3030 3030 3029 3029 3029 3030 3030 3031 3032 3034 3035 3035 3036 3037 3038 3039 3040 3042 3044 3045 3045 3046 3047 3047 3048 3049 3049 3050 3050 3050 3050 3051 3052 3053 3054 3054 3055 3056 3058 3060 3062 3063 3064 3065 3066 3066 3066 3067 3067 3066 3066 3067 3069 3070 3071 3072 3072 3073 3074 3076 3076 3075 3076 3077 3076 3075 3077 3077 3078 3081 3083 3084 3086 3087 3088 3090 3091 3092 3093 3094 3095 3095 3096 3096 3097
3033 3032 3031 3029 3028 3027 3027 3028 3028 3028 3030 3031 3031 3032 3032 3033 3035 3037 3038 3038 3040 3042 3042 3043 3044 3045 3046 3047 3048 3048 3049 3049 3049 3050 3050 3051 3052 3053 3053 3055 3056 3057 3058 3059 3060 3062 3063 3065 3065 3065 3065 3064 3064 3064 3066 3067 3068 3069 3070 3071 3072 3072 3073 3074 3072 3073 3076 3076 3076 3076 3076 3078 3081 3082 3083 3084 3086 3087 3089 3090 3091 3092 3093 3094 3094 3095 3095 3096
3032 3030 3029 3027 3026 3026 3026 3027 3026 3026 3028 3028 3028 3029 3030 3032 3034 3036 3037 3037 3039 3040 3040 3041 3042 3043 3044 3045 3046 3047 3047 3048 3048 3048 3049 3050 3051 3051 3052 3054 3056 3056 3057 3058 3059 3060 3062 3063 3064 3063 3064 3064 3063 3064 3065 3065 3067 3068 3068 3069 3070 3070 3071 3072 3071 3072 3074 3074 3075 3076 3075 3077 3079 3080 3082 3083 3085 3087 3088 3089 3091 3092 3092 3093 3094 3094 3095 3096
3030 3029 3028 3026 3025 3025 3025 3025 3025 3025 3026 3026 3026 3028 3029 3030 3032 3034 3035 3037 3037 3038 3039 3040 3041 3041 3042 3043 3044 3045 3046 3047 3047 3047 3048 3049 3049 3049 3051 3052 3054 3056 3056 3057 3058 3059 3061 3063 3063 3062 3062 3062 3062 3063 3064 3064 3065 3066 3066 3066 3067 3068 3070 3070 3071 3073 3072 3072 3074 3074 3073 3075 3078 3079 3081 3082 3084 3086 3087 3088 3090 3091 3092 3092 3093 3094 3095 3096
3030 3028 3027 3026 3025 3024 3023 3023 3023 3024 3024 3024 3026 3027 3027 3029 3030 3031 3033 3034 3035 3036 3037 3038 3038 3039 3040 3041 3042 3043 3044 3045 3046 3046 3047 3048 3047 3048 3049 3051 3053 3054 3055 3056 3057 3058 3060 3062 3062 3060 3059 3059 3059 3060 3060 3061 3063 3063 3063 3064 3065 3066 3067 3069 3070 3071 3070 3070 3072 3072 3072 3075 3077 3078 3079 3081 3083 3085 3086 3087 3089 3090 3091 3091 3092 3093 3094 3095
3029 3028 3027 3025 3024 3023 3022 3022 3022 3022 3023 3024 3025 3025 3026 3028 3028 3030 3032 3032 3033 3034 3035 3036 3037 3038 3039 3040 3041 3042 3042 3043 3044 3045 3046 3046 3046 3047 3048 3050 3051 3052 3054 3055 3057 3058 3059 3061 3061 3060 3059 3059 3059 3058 3058 3060 3061 3062 3062 3063 3063 3064 3066 3067 3068 3068 3068 3069 3070 3070 3072 3074 3076 3077 3078 3080 3081 3083 3084 3086 3087 3088 3089 3090 3091 3092 3093 3094
3029 3028 3026 3025 3024 3023 3021 3020 3020 3020 3021 3022 3023 3024 3026 3027 3028 3029 3030 3031 3032 3033 3034 3035 3035 3036 3037 3038 3039 3040 3041 3042 3042 3043 3044 3045 3045 3045 3047 3048 3049 3051 3052 3054 3056 3057 3059 3060 3060 3060 3059 3060 3060 3059 3059 3060 3060 3060 3061 3061 3062 3063 3064 3066 3066 3066 3067 3068 3067 3068 3071 3073 3074 3075 3076 3077 3079 3081 3082 3084 3085 3087 3088 3089 3090 3091 3092 3093
3029 3028 3026 3025 3024 3022 3021 3019 3019 3019 3019 3021 3022 3023 3025 3026 3027 3028 3028 3029 3031 3032 3033 3033 3034 3035 3036 3037 3038 3039 3039 3040 3041 3041 3043 3043 3044 3045 3046 3047 3048 3049 3051 3053 3054 3056 3057 3057 3058 3059 3059 3059 3060 3060 3059 3060 3060 3060 3060 3061 3061 3062 3063 3064 3065 3065 3066 3067 3066 3068 3069 3071 3072 3073 3074 3075 3077 3079 3081 3082 3084 3085 3087 3088 3089 3090 3091 3092
3029 3028 3026 3025 3024 3022 3020 3019 3019 3018 3018 3019 3020 3022 3024 3025 3026 3027 3027 3028 3029 3031 3032 3032 3033 3034 3034 3035 3036 3037 3037 3038 3039 3039 3041 3042 3043 3045 3046 3047 3047 3049 3050 3051 3052 3054 3055 3056 3056 3057 3059 3059 3060 3059 3060 3060 3060 3060 3060 3060 3061 3061 3062 3063 3064 3064 3065 3066 3066 3067 3068 3069 3071 3072 3073 3075 3076 3078 3080 3081 3083 3084 3085 3086 3087 3088 3089 3090
3029 3028 3026 3025 3024 3023 3021 3020 3019 3019 3018 3019 3020 3021 3023 3024 3025 3026 3027 3027 3028 3029 3031 3032 3032 3033 3033 3034 3035 3035 3036 3037 3037 3038 3039 3041 3042 3043 3044 3045 3046 3048 3049 3050 3051 3053 3055 3055 3055 3056 3058 3059 3058 3059 3060 3060 3060 3060 3060 3060 3060 3061 3061 3062 3063 3064 3065 3066 3066 3067 3067 3068 3069 3071 3073 3074 3075 3077 3079 3080 3081 3083 3084 3085 3086 3087 3087 3088
3029 3028 3027 3026 3026 3025 3024 3023 3022 3020 3020 3020 3020 3021 3022 3023 3024 3025 3026 3026 3028 3028 3030 3031 3031 3032 3032 3033 3033 3034 3035 3036 3036 3037 3038 3039 3040 3041 3042 3043 3045 3046 3048 3049 3051 3052 3053 3054 3055 3056 3057 3057 3057 3058 3059 3059 3061 3061 3061 3061 3060 3060 3061 3062 3063 3064 3065 3066 3067 3067 3068 3068 3069 3070 3072 3073 3075 3076 3077 3079 3080 3081 3082 3083 3084 3084 3085 3086
3029 3029 3028 3027 3027 3026 3026 3025 3024 3023 3022 3022 3022 3022 3023 3024 3025 3025 3025 3026 3027 3028 3029 3030 3030 3031 3032 3032 3033 3034 3034 3035 3036 3037 3038 3039 3040 3041 3042 3042 3044 3045 3046 3047 3049 3051 3051 3052 3053 3054 3055 3055 3055 3056 3057 3060 3061 3060 3059 3060 3060 3060 3061 3062 3062 3064 3065 3066 3067 3068 3068 3068 3069 3070 3071 3072 3074 3075 3076 3077 3078 3079 3079 3079 3079 3080 3081 3082